Tracking 33208 objects as of 14-Feb-2026
HD Live streaming from Space Station
objects crossing your sky now

STARLINK-5775

Track STARLINK-5775 now!
10-day predictions
STARLINK-5775 is classified as:


NORAD ID: 56503
Int'l Code: 2023-065A
Perigee: 565.3 km
Apogee: 567.1 km
Inclination: 43.0 °
Period: 95.8 minutes
Semi major axis: 6937 km
RCS: Unknown
Launch date: May 14, 2023
Source: United States (US)
Launch site: AIR FORCE EASTERN TEST RANGE (AFETR)
Your satellite tracking list
Your tracking list is empty




NASA's NSSDC Master Catalog

Two Line Element Set (TLE):
1 56503U 23065A   26045.24457428  .00000207  00000-0  30428-4 0  9998
2 56503  43.0053 338.1151 0001288 272.1926  87.8768 15.02533131153092
Source of the keplerian elements: AFSPC